When you browse on this site, cookies collect data to enhance your experience and personalize the content and advertising you see.
Visit our Privacy Policy to learn more. By continuing to use the site, you agree to this use of cookies and data.
  • In Spain
  • List of Countries
  • For 7 days
  • Water Temperature
  • Weather Map
  • Weather Widgets
  • user-avatar
    Login

    Hourly Weather Seoul

    Today, 5 June, Friday

    Time Temperature Precipitation Wind Pressure Humidity
    00:00 +22°C° 0 mm 1 mps 748 mmHg 83%
    01:00 +21°C° 0 mm 1 mps 748 mmHg 85%
    02:00 +21°C° 0 mm 1 mps 749 mmHg 84%
    03:00 +21°C° 0 mm 1 mps 749 mmHg 83%
    04:00 +21°C° 0 mm 1 mps 749 mmHg 82%
    05:00 +19°C° 0 mm 0 mps 749 mmHg 81%
    06:00 +21°C° 0 mm 0 mps 749 mmHg 75%
    07:00 +22°C° 0 mm 0 mps 749 mmHg 68%
    08:00 +23°C° 0 mm 0 mps 750 mmHg 62%
    09:00 +26°C° 0 mm 1 mps 750 mmHg 53%
    10:00 +28°C° 0 mm 1 mps 750 mmHg 44%
    11:00 +30°C° 0 mm 1 mps 750 mmHg 36%
    12:00 +30°C° 0 mm 2 mps 749 mmHg 35%
    13:00 +31°C° 0 mm 2 mps 749 mmHg 33%
    14:00 +31°C° 0 mm 3 mps 748 mmHg 32%
    15:00 +30°C° 0 mm 3 mps 748 mmHg 35%
    16:00 +29°C° 0 mm 3 mps 749 mmHg 38%
    17:00 +29°C° 0 mm 3 mps 749 mmHg 42%
    18:00 +27°C° 0 mm 3 mps 749 mmHg 46%
    19:00 +26°C° 0 mm 2 mps 749 mmHg 51%
    20:00 +25°C° 0 mm 2 mps 750 mmHg 55%
    21:00 +24°C° 0 mm 1 mps 750 mmHg 56%
    22:00 +24°C° 0 mm 1 mps 751 mmHg 57%
    23:00 +21°C° 0 mm 0 mps 751 mmHg 58%

    Tomorrow, 6 June, Saturday

    Time Temperature Precipitation Wind Pressure Humidity
    00:00 +21°C° 0 mm 0 mps 751 mmHg 59%
    01:00 +20°C° 0 mm 0 mps 751 mmHg 61%
    02:00 +20°C° 0 mm 0 mps 750 mmHg 62%
    03:00 +20°C° 0 mm 0 mps 750 mmHg 63%
    04:00 +19°C° 0 mm 0 mps 751 mmHg 64%
    05:00 +19°C° 0 mm 0 mps 751 mmHg 65%
    06:00 +21°C° 0 mm 0 mps 751 mmHg 60%
    07:00 +23°C° 0 mm 0 mps 751 mmHg 54%
    08:00 +25°C° 0 mm 0 mps 751 mmHg 48%
    09:00 +27°C° 0 mm 0 mps 751 mmHg 42%
    10:00 +28°C° 0 mm 0 mps 751 mmHg 37%
    11:00 +30°C° 0 mm 0 mps 751 mmHg 31%
    12:00 +32°C° 0 mm 1 mps 750 mmHg 30%
    13:00 +34°C° 0 mm 2 mps 750 mmHg 29%
    14:00 +34°C° 0 mm 3 mps 750 mmHg 28%
    15:00 +33°C° 0 mm 3 mps 750 mmHg 30%
    16:00 +31°C° 0 mm 3 mps 750 mmHg 32%
    17:00 +30°C° 0 mm 3 mps 750 mmHg 35%
    18:00 +29°C° 0 mm 3 mps 750 mmHg 38%
    19:00 +28°C° 0 mm 2 mps 751 mmHg 41%
    20:00 +27°C° 0 mm 1 mps 751 mmHg 44%
    21:00 +26°C° 0 mm 1 mps 751 mmHg 46%
    22:00 +25°C° 0 mm 1 mps 752 mmHg 49%
    23:00 +24°C° 0 mm 2 mps 752 mmHg 52%

    Day after tomorrow, 7 June, Sunday

    Time Temperature Precipitation Wind Pressure Humidity
    00:00 +24°C° 0 mm 1 mps 752 mmHg 53%
    01:00 +23°C° 0 mm 1 mps 752 mmHg 54%
    02:00 +23°C° 0 mm 1 mps 752 mmHg 56%
    03:00 +22°C° 0 mm 1 mps 752 mmHg 57%
    04:00 +22°C° 0 mm 1 mps 753 mmHg 58%
    05:00 +22°C° 0 mm 1 mps 753 mmHg 60%
    06:00 +23°C° 0 mm 1 mps 753 mmHg 55%
    07:00 +25°C° 0 mm 1 mps 753 mmHg 51%
    08:00 +26°C° 0 mm 2 mps 753 mmHg 47%
    09:00 +27°C° 0 mm 2 mps 753 mmHg 41%
    10:00 +29°C° 0 mm 2 mps 753 mmHg 36%
    11:00 +30°C° 0 mm 3 mps 753 mmHg 30%
    12:00 +30°C° 0 mm 3 mps 752 mmHg 30%
    13:00 +30°C° 0 mm 4 mps 752 mmHg 29%
    14:00 +30°C° 0 mm 4 mps 751 mmHg 28%
    15:00 +30°C° 0 mm 4 mps 751 mmHg 30%
    16:00 +29°C° 0 mm 3 mps 751 mmHg 32%
    17:00 +28°C° 0 mm 3 mps 751 mmHg 35%
    18:00 +27°C° 0 mm 2 mps 752 mmHg 41%
    19:00 +26°C° 0 mm 2 mps 752 mmHg 48%
    20:00 +24°C° 0 mm 1 mps 752 mmHg 55%
    21:00 +24°C° 0 mm 1 mps 753 mmHg 60%
    22:00 +23°C° 0 mm 1 mps 753 mmHg 64%
    23:00 +22°C° 0 mm 1 mps 754 mmHg 69%

    8 June, Monday

    Time Temperature Precipitation Wind Pressure Humidity
    00:00 +22°C° 0 mm 1 mps 754 mmHg 72%
    01:00 +22°C° 0 mm 1 mps 754 mmHg 74%
    02:00 +22°C° 0 mm 1 mps 754 mmHg 76%
    03:00 +21°C° 0 mm 1 mps 754 mmHg 77%
    04:00 +19°C° 0 mm 0 mps 755 mmHg 78%
    05:00 +19°C° 0 mm 0 mps 755 mmHg 78%
    06:00 +21°C° 0 mm 0 mps 755 mmHg 71%
    07:00 +23°C° 0 mm 0 mps 755 mmHg 63%
    08:00 +25°C° 0 mm 0 mps 755 mmHg 56%
    09:00 +28°C° 0 mm 1 mps 755 mmHg 49%
    10:00 +30°C° 0 mm 1 mps 755 mmHg 43%
    11:00 +31°C° 0 mm 1 mps 754 mmHg 37%
    12:00 +32°C° 0 mm 2 mps 754 mmHg 36%
    13:00 +33°C° 0 mm 3 mps 754 mmHg 35%
    14:00 +33°C° 0 mm 3 mps 754 mmHg 35%
    15:00 +32°C° 0 mm 4 mps 754 mmHg 38%
    16:00 +30°C° 0 mm 4 mps 754 mmHg 41%
    17:00 +29°C° 0 mm 4 mps 754 mmHg 43%
    18:00 +28°C° 0 mm 3 mps 754 mmHg 47%
    19:00 +27°C° 0 mm 2 mps 755 mmHg 50%
    20:00 +26°C° 0 mm 1 mps 755 mmHg 53%
    21:00 +25°C° 0 mm 1 mps 755 mmHg 54%
    22:00 +25°C° 0 mm 1 mps 755 mmHg 55%
    23:00 +25°C° 0 mm 1 mps 755 mmHg 57%

    9 June, Tuesday

    Time Temperature Precipitation Wind Pressure Humidity
    00:00 +24°C° 0 mm 1 mps 756 mmHg 58%
    01:00 +22°C° 0 mm 0 mps 756 mmHg 60%
    02:00 +21°C° 0 mm 0 mps 756 mmHg 61%
    03:00 +21°C° 0 mm 0 mps 756 mmHg 62%
    04:00 +21°C° 0 mm 0 mps 755 mmHg 63%
    05:00 +21°C° 0 mm 0 mps 755 mmHg 63%
    06:00 +25°C° 0 mm 1 mps 755 mmHg 58%
    07:00 +26°C° 0 mm 1 mps 756 mmHg 52%
    08:00 +28°C° 0 mm 1 mps 756 mmHg 46%
    09:00 +30°C° 0 mm 1 mps 755 mmHg 41%
    10:00 +31°C° 0 mm 1 mps 755 mmHg 36%
    11:00 +34°C° 0 mm 2 mps 755 mmHg 30%
    12:00 +34°C° 0 mm 3 mps 755 mmHg 30%
    13:00 +34°C° 0 mm 3 mps 754 mmHg 29%
    14:00 +34°C° 0 mm 4 mps 754 mmHg 29%
    15:00 +33°C° 0 mm 4 mps 754 mmHg 31%
    16:00 +32°C° 0 mm 4 mps 754 mmHg 34%
    17:00 +30°C° 0 mm 4 mps 754 mmHg 36%
    18:00 +29°C° 0 mm 3 mps 754 mmHg 39%
    19:00 +28°C° 0 mm 2 mps 755 mmHg 41%
    20:00 +27°C° 0 mm 2 mps 755 mmHg 43%
    21:00 +26°C° 0 mm 1 mps 755 mmHg 44%
    22:00 +26°C° 0 mm 1 mps 755 mmHg 45%
    23:00 +24°C° 0 mm 0 mps 755 mmHg 46%

    10 June, Wednesday

    Time Temperature Precipitation Wind Pressure Humidity
    00:00 +23°C° 0 mm 0 mps 755 mmHg 46%
    01:00 +23°C° 0 mm 0 mps 754 mmHg 47%
    02:00 +23°C° 0 mm 0 mps 754 mmHg 48%
    03:00 +23°C° 0 mm 0 mps 754 mmHg 47%
    04:00 +25°C° 0 mm 1 mps 754 mmHg 47%
    05:00 +25°C° 0 mm 1 mps 753 mmHg 47%
    06:00 +26°C° 0.1 mm 1 mps 753 mmHg 46%
    07:00 +27°C° 0.1 mm 2 mps 753 mmHg 44%
    08:00 +28°C° 0.1 mm 2 mps 753 mmHg 43%
    09:00 +27°C° 1.6 mm 2 mps 752 mmHg 54%
    10:00 +26°C° 1.6 mm 2 mps 752 mmHg 65%
    11:00 +24°C° 1.6 mm 2 mps 751 mmHg 77%
    12:00 +24°C° 6.1 mm 2 mps 751 mmHg 81%
    13:00 +24°C° 6.1 mm 2 mps 751 mmHg 85%
    14:00 +23°C° 6.1 mm 1 mps 750 mmHg 90%
    15:00 +24°C° 6.5 mm 3 mps 750 mmHg 89%
    16:00 +23°C° 6.5 mm 4 mps 749 mmHg 89%
    17:00 +23°C° 6.5 mm 5 mps 749 mmHg 89%
    18:00 +23°C° 4.9 mm 5 mps 749 mmHg 90%
    19:00 +22°C° 4.9 mm 5 mps 749 mmHg 91%
    20:00 +22°C° 4.9 mm 5 mps 749 mmHg 92%
    21:00 +22°C° 3.7 mm 5 mps 749 mmHg 92%
    22:00 +22°C° 3.7 mm 5 mps 749 mmHg 92%
    23:00 +22°C° 3.7 mm 5 mps 748 mmHg 92%
    Show more